DW7355 Weather Reports


time (UTC)temp
F
wind
direction
speed
knots
gust
knots
rain 1hr
in
rain 24hr
in
rain mn
in
humidity
%
barometer
mb
20260507074523 54 264 0.0 5.2 0.01 0.10 0.01 87 1006.4
20260507073008 55 288 0.0 5.2 0.00 0.09 0.00 85 1006.5
20260507071505 55 302 0.9 3.5 0.00 0.09 0.00 85 1005.8
20260507070010 55 245 0.0 2.6 0.00 0.09 0.00 86 1005.9
20260507064504 56 312 1.7 3.5 0.00 0.09 0.00 85 1006.1
20260507063100 56 287 1.7 3.5 0.00 0.09 0.00 85 1006.1
20260507061559 57 301 0.0 2.6 0.00 0.09 0.00 86 1005.9
20260507060106 57 282 1.7 5.2 0.00 0.09 0.00 86 1006.1
20260507054558 58 276 0.0 6.1 0.00 0.09 0.00 86 1006.2
20260507053055 58 329 0.9 6.1 0.00 0.09 0.00 87 1006.3
20260507051552 58 272 0.9 3.5 0.00 0.09 0.00 87 1006.0
20260507050049 59 250 2.6 7.0 0.00 0.09 0.00 88 1006.1
20260507044547 59 256 0.0 3.5 0.00 0.09 0.00 90 1005.9
20260507043043 60 305 0.9 6.1 0.00 0.09 0.00 92 1005.8
20260507041539 60 266 0.0 3.5 0.00 0.09 0.00 93 1005.9
20260507040035 59 285 0.0 2.6 0.00 0.09 0.00 93 1006.2
20260507034550 59 253 1.7 4.3 0.00 0.09 0.09 93 1006.0
20260507033038 60 295 0.0 4.3 0.00 0.09 0.09 93 1005.9
20260507031532 60 221 1.7 3.5 0.00 0.09 0.09 92 1005.7
20260507030035 59 263 1.7 4.3 0.00 0.09 0.09 92 1005.5
20260507024548 59 287 0.9 7.0 0.00 0.09 0.09 93 1005.5
20260507023030 59 239 0.0 4.3 0.00 0.09 0.09 93 1005.7
20260507021529 59 197 0.9 4.3 0.00 0.09 0.09 93 1005.6
20260507020029 59 228 0.9 4.3 0.00 0.09 0.09 93 1005.6
20260507014538 59 226 0.9 5.2 0.00 0.09 0.09 93 1005.6
20260507013028 58 155 0.9 9.6 0.00 0.09 0.09 93 1005.8
20260507011538 58 124 1.7 6.1 0.00 0.09 0.09 93 1006.0
20260507010027 58 269 1.7 5.2 0.00 0.09 0.09 93 1006.1
20260507004526 58 288 0.9 6.1 0.00 0.09 0.09 93 1006.1
20260507003025 58 211 1.7 8.7 0.01 0.09 0.09 93 1006.0
20260507001527 58 214 0.9 9.6 0.02 0.09 0.09 93 1005.9
20260507000024 58 242 0.9 7.0 0.03 0.09 0.09 93 1005.6
20260506234522 58 214 1.7 7.0 0.02 0.08 0.08 93 1005.8
20260506233021 59 225 0.9 7.0 0.02 0.08 0.08 93 1005.7
20260506231521 59 256 2.6 8.7 0.01 0.07 0.07 92 1005.7
20260506230017 59 179 0.9 7.0 0.00 0.06 0.06 92 1005.7
20260506224516 60 255 0.9 5.2 0.01 0.06 0.06 92 1005.7
20260506223012 60 170 1.7 6.1 0.02 0.06 0.06 92 1005.9
20260506221511 60 132 0.9 9.6 0.02 0.06 0.06 92 1006.1
20260506220010 61 160 0.9 5.2 0.02 0.06 0.06 91 1006.1
20260506214515 61 189 3.5 9.6 0.02 0.05 0.05 89 1006.4
20260506213009 62 255 3.5 12.2 0.01 0.04 0.04 87 1006.5
20260506211505 62 232 2.6 7.8 0.01 0.04 0.04 86 1006.5
20260506210004 62 307 1.7 10.4 0.01 0.04 0.04 86 1006.5
20260506204504 62 194 2.6 12.2 0.01 0.03 0.03 85 1006.7
20260506203008 62 214 1.7 10.4 0.02 0.03 0.03 83 1006.7
20260506201502 63 149 3.5 11.3 0.03 0.03 0.03 82 1006.6
20260506200001 63 257 1.7 5.2 0.03 0.03 0.03 81 1006.4
20260506194559 64 219 1.7 7.0 0.02 0.02 0.02 80 1006.7
20260506193058 65 130 0.9 7.0 0.01 0.01 0.01 76 1006.9
20260506191559 66 79 1.7 10.4 0.00 0.00 0.00 73 1006.8
20260506190059 68 308 2.6 9.6 0.00 0.00 0.00 67 1006.7
20260506184556 69 266 2.6 7.8 0.00 0.00 0.00 63 1006.7
20260506183057 70 283 3.5 14.8 0.00 0.00 0.00 61 1006.8
20260506181555 71 259 3.5 12.2 0.00 0.00 0.00 59 1007.0
20260506180052 72 319 3.5 10.4 0.00 0.00 0.00 58 1007.0
20260506174557 72 242 3.5 11.3 0.00 0.00 0.00 58 1007.3
20260506173102 72 270 2.6 7.8 0.00 0.00 0.00 59 1007.4
20260506171550 72 136 4.3 10.4 0.00 0.00 0.00 60 1007.3
20260506170048 71 231 4.3 11.3 0.00 0.00 0.00 60 1007.5
20260506164545 72 300 3.5 12.2 0.00 0.00 0.00 59 1007.8
20260506163049 72 197 3.5 8.7 0.00 0.00 0.00 60 1007.8
20260506161541 72 179 2.6 10.4 0.00 0.00 0.00 59 1008.1
20260506160040 72 215 3.5 13.9 0.00 0.00 0.00 59 1008.3
20260506154539 72 257 2.6 13.9 0.00 0.00 0.00 59 1008.6
20260506153042 73 225 2.6 8.7 0.00 0.00 0.00 58 1008.8
20260506151534 72 287 3.5 12.2 0.00 0.00 0.00 58 1008.9
20260506150038 72 166 4.3 13.9 0.00 0.00 0.00 58 1009.1
20260506144549 71 266 2.6 9.6 0.00 0.00 0.00 61 1009.0
20260506143027 71 165 3.5 7.0 0.00 0.00 0.00 62 1008.9
20260506141525 70 186 1.7 6.1 0.00 0.00 0.00 64 1008.9
20260506140033 68 196 3.5 10.4 0.00 0.00 0.00 67 1009.0
20260506134516 67 231 2.6 8.7 0.00 0.00 0.00 69 1009.0
20260506133016 66 220 2.6 8.7 0.00 0.00 0.00 71 1009.7
20260506131512 66 220 1.7 12.2 0.00 0.00 0.00 72 1009.6
20260506130010 66 193 1.7 7.0 0.00 0.00 0.00 72 1009.5
20260506124506 65 53 4.3 8.7 0.00 0.00 0.00 74 1009.6
20260506123004 63 253 2.6 7.8 0.00 0.00 0.00 77 1009.9
20260506121503 63 245 0.9 6.1 0.00 0.00 0.00 78 1009.6
20260506120003 62 215 1.7 7.0 0.00 0.00 0.00 80 1010.0
20260506114502 61 290 1.7 6.1 0.00 0.00 0.00 80 1009.9
20260506113002 61 114 1.7 8.7 0.00 0.00 0.00 80 1010.3
20260506111600 61 252 4.3 7.0 0.00 0.00 0.00 80 1010.2
20260506104606 60 236 1.7 6.1 0.00 0.00 0.00 82 1010.0
20260506103106 60 179 0.9 7.8 0.00 0.00 0.00 82 1010.2
20260506101556 60 179 1.7 6.1 0.00 0.00 0.00 82 1010.0
20260506100107 60 221 1.7 6.1 0.00 0.00 0.00 82 1010.0
20260506094602 60 198 0.9 6.1 0.00 0.00 0.00 82 1009.8
20260506093053 60 195 1.7 5.2 0.00 0.00 0.00 82 1010.0
20260506091551 60 248 0.9 7.0 0.00 0.00 0.00 81 1009.8
20260506090049 61 222 0.9 7.8 0.00 0.00 0.00 80 1009.8
20260506084552 61 180 1.7 8.7 0.00 0.00 0.00 79 1009.8